DW1590 Weather Reports


time (UTC)temp
C
wind
direction
speed
KPH
gust
KPH
rain 1hr
cm
rain 24hr
cm
rain mn
cm
humidity
%
barometer
mb
20260504081501 8 225 0.0 0.0 0.00 0.00 0.00 17 1014.9
20260504050005 6 226 1.6 0.0 0.00 0.00 0.00 100 1015.2
20260504044501 6 225 0.0 0.0 0.00 0.00 0.00 100 1015.1
20260504043101 6 225 3.2 0.0 0.00 0.00 0.00 100 1015.2
20260504041552 6 232 1.6 0.0 0.00 0.00 0.00 100 1015.0
20260504040048 6 248 0.0 0.0 0.00 0.00 0.00 100 1015.1
20260504034549 6 248 0.0 0.0 0.00 0.00 0.00 1 1015.1
20260504033043 6 248 0.0 0.0 0.00 0.00 0.00 10 1014.8
20260504031542 6 248 0.0 0.0 0.00 0.00 0.00 19 1014.8
20260504030039 7 248 0.0 0.0 0.00 0.00 0.00 37 1014.6
20260504024529 7 248 0.0 0.0 0.00 0.00 0.00 45 1014.5
20260504023028 7 248 0.0 0.0 0.00 0.00 0.00 52 1014.6
20260504021528 7 248 0.0 0.0 0.00 0.00 0.00 59 1014.5
20260504020030 8 248 0.0 0.0 0.00 0.00 0.00 62 1014.5
20260504014527 8 248 0.0 0.0 0.00 0.00 0.00 63 1014.3
20260504013027 8 248 0.0 0.0 0.00 0.00 0.00 64 1014.2
20260504011527 9 248 0.0 0.0 0.00 0.00 0.00 63 1014.0
20260504010026 9 248 0.0 0.0 0.00 0.00 0.00 62 1014.1
20260504004528 10 248 0.0 0.0 0.00 0.00 0.00 59 1013.8
20260504003024 11 248 0.0 0.0 0.00 0.00 0.00 57 1013.9
20260504001525 11 248 0.0 0.0 0.00 0.00 0.00 54 1013.6
20260504000024 13 248 0.0 0.0 0.00 0.00 0.00 49 1013.5
20260503234526 14 248 1.6 0.0 0.00 0.00 0.00 45 1013.4
20260503233024 15 246 0.0 0.0 0.00 0.00 0.00 41 1013.3
20260503231526 15 236 1.6 0.0 0.00 0.00 0.00 38 1013.1
20260503230023 15 239 1.6 0.0 0.00 0.00 0.00 37 1013.1
20260503224521 16 250 6.4 0.0 0.00 0.00 0.00 35 1013.2
20260503223024 16 250 4.8 0.0 0.00 0.00 0.00 37 1013.2
20260503221521 16 306 6.4 0.0 0.00 0.00 0.00 35 1013.1
20260503220027 17 212 8.0 0.0 0.00 0.00 0.00 36 1013.2
20260503214519 16 227 9.7 0.0 0.00 0.00 0.00 34 1013.3
20260503213019 16 278 9.7 0.0 0.00 0.00 0.00 33 1013.2
20260503211522 17 215 8.0 0.0 0.00 0.00 0.00 33 1013.1
20260503210019 17 287 6.4 0.0 0.00 0.00 0.00 33 1013.3
20260503204516 16 324 9.7 0.0 0.00 0.00 0.00 36 1013.2
20260503203021 16 323 11.3 0.0 0.00 0.00 0.00 35 1013.4
20260503201512 16 304 11.3 0.0 0.00 0.00 0.00 36 1013.6
20260503200012 16 219 9.7 0.0 0.00 0.00 0.00 36 1013.9
20260503194516 16 312 11.3 0.0 0.00 0.00 0.00 39 1014.1
20260503193009 16 309 12.9 0.0 0.00 0.00 0.00 38 1014.2
20260503191507 15 271 12.9 0.0 0.00 0.00 0.00 39 1014.5
20260503190007 15 246 8.0 0.0 0.00 0.00 0.00 40 1014.6
20260503184504 15 242 14.5 0.0 0.00 0.00 0.00 40 1014.8
20260503183001 15 351 11.3 0.0 0.00 0.00 0.00 42 1015.0
20260503181559 14 213 16.1 0.0 0.00 0.00 0.00 42 1015.0
20260503180057 13 325 12.9 0.0 0.00 0.00 0.00 40 1015.1
20260503174610 13 284 9.7 0.0 0.00 0.00 0.00 43 1015.3
20260503173123 13 271 11.3 0.0 0.00 0.00 0.00 42 1015.5
20260503171552 13 297 12.9 0.0 0.00 0.00 0.00 44 1015.4